This is the latest recevied weather packets stored in our database for station/object K4AGR-13. If no packets are shown the sender has not sent any weather packets the latest 10 day(s).
| Time | Temp. | Humidity | Pressure | Rain* | Wind** | Luminosity | Snow |
|---|---|---|---|---|---|---|---|
| 1777312937 | 26.67° C | 61% | 1017.6 hPa | 0 mm | - | 1057 W/m² | - |
| 1777312633 | 26.11° C | 61% | 1017.7 hPa | 0 mm | - | 1013 W/m² | - |
| 1777312331 | 26.11° C | 63% | 1017.7 hPa | 0 mm | - | 1078 W/m² | - |
| 1777312028 | 26.11° C | 63% | 1017.8 hPa | 0 mm | - | 1068 W/m² | - |
| 1777311724 | 26.11° C | 61% | 1017.9 hPa | 0 mm | - | 1052 W/m² | - |
| 1777311422 | 25.56° C | 62% | 1018.1 hPa | 0 mm | - | 1062 W/m² | - |
| 1777311119 | 25.56° C | 64% | 1018.1 hPa | 0 mm | - | 1084 W/m² | - |
| 1777310818 | 25° C | 65% | 1018.4 hPa | 0 mm | - | 1102 W/m² | - |
| 1777310514 | 25° C | 66% | 1018.5 hPa | 0 mm | - | 881 W/m² | - |
| 1777310211 | 25° C | 67% | 1018.3 hPa | 0 mm | - | 1084 W/m² | - |
| 1777309909 | 24.44° C | 68% | 1018.5 hPa | 0 mm | - | 1295 W/m² | - |
| 1777309607 | 23.89° C | 68% | 1018.5 hPa | 0 mm | - | 702 W/m² | - |
| 1777309304 | 23.89° C | 68% | 1018.6 hPa | 0 mm | - | 779 W/m² | - |
| 1777309002 | 24.44° C | 68% | 1018.7 hPa | 0 mm | - | 569 W/m² | - |
| 1777308703 | 23.89° C | 70% | 1018.6 hPa | 0 mm | - | 1459 W/m² | - |
| 1777308398 | 23.33° C | 71% | 1018.6 hPa | 0 mm | - | 597 W/m² | - |
| 1777308093 | 22.78° C | 72% | 1018.8 hPa | 0 mm | - | 441 W/m² | - |
| 1777307792 | 23.33° C | 72% | 1019 hPa | 0 mm | - | 377 W/m² | - |
| 1777307489 | 22.78° C | 73% | 1019 hPa | 0 mm | - | 382 W/m² | - |
| 1777307186 | 22.78° C | 73% | 1019.2 hPa | 0 mm | - | 303 W/m² | - |
| 1777306883 | 22.78° C | 73% | 1018.9 hPa | 0 mm | - | 260 W/m² | - |
| 1777306580 | 22.78° C | 74% | 1019 hPa | 0 mm | - | 265 W/m² | - |
| 1777306275 | 22.78° C | 74% | 1019 hPa | 0 mm | - | 321 W/m² | - |
| 1777305971 | 22.78° C | 73% | 1019 hPa | 0 mm | - | 331 W/m² | - |
| 1777305669 | 22.78° C | 74% | 1019 hPa | 0 mm | - | 394 W/m² | - |
* Rain latest hour (hover to see other rain measurements)
** Current wind speed in m/s (hover to see current wind gust speed)